Theta_e
314 315 313 315 321 318 316 323 328 325 323 323 324 323 323 318 315 312 314 328 330 330 314 313 313 314 315 314 314 310 314 317 317 315 317 313 315 313 315 319 325 329 329 330 333
314 314 313 313 321 319 316 321 325 326 325 324 324 323 321 317 314 312 321 324 328 315 311 313 315 316 317 314 313 312 313 316 315 313 314 313 314 313 319 327 334 334 330 332 333
313 314 314 314 314 320 316 319 327 327 326 325 325 325 324 315 312 313 322 319 325 314 312 314 316 315 319 316 314 314 315 314 314 313 313 313 313 312 317 320 329 332 330 332 333
312 313 313 313 315 320 317 319 325 327 326 325 325 325 321 314 329 313 323 318 322 311 312 313 314 315 315 320 315 315 313 313 313 314 313 312 311 316 316 316 318 330 331 333 333
311 311 313 314 313 320 317 318 324 325 325 324 324 319 313 313 315 312 312 316 314 312 312 311 314 315 318 314 312 313 313 312 311 313 311 310 312 314 314 312 326 331 331 333 333
309 310 308 313 313 320 318 317 322 324 324 322 317 313 311 315 311 311 313 314 312 310 310 311 312 315 316 317 318 312 312 312 311 312 312 312 312 312 312 322 331 332 332 331 333
309 309 309 313 313 317 318 317 321 323 322 317 314 313 311 313 311 313 313 314 312 310 309 311 312 313 313 319 314 312 312 311 312 312 312 311 314 312 310 326 333 333 332 331 332
308 307 311 313 315 313 318 317 319 322 320 316 314 312 310 310 311 314 314 312 311 310 310 311 312 310 311 309 310 310 310 312 311 311 311 312 313 313 311 328 332 331 330 330 329
307 306 309 314 314 313 318 317 320 321 319 313 312 312 311 310 312 313 313 310 310 310 311 311 311 309 308 308 310 309 311 311 311 310 311 312 313 312 308 322 328 329 331 331 330
307 306 306 310 314 312 318 316 319 316 314 311 311 313 312 310 311 311 311 310 309 308 309 309 306 308 305 308 318 311 311 310 311 310 309 311 311 309 307 314 320 323 323 325 327
307 306 306 308 312 313 317 317 313 313 311 312 310 314 312 309 310 310 309 309 307 307 308 308 308 308 307 306 308 308 310 311 310 309 310 309 310 309 306 306 307 309 312 316 324
306 306 307 308 309 314 317 316 315 312 316 311 310 312 313 310 310 310 309 309 307 308 307 308 309 307 308 307 308 309 309 309 309 309 310 309 309 307 306 305 304 305 303 305 306
306 305 307 308 309 314 317 316 313 313 315 312 311 313 314 311 311 310 307 307 307 307 307 309 309 307 308 308 309 308 308 307 310 309 309 309 308 309 307 305 305 302 302 302 303
305 305 306 309 309 314 317 315 312 314 313 313 314 311 312 315 317 311 308 308 307 308 306 308 307 308 308 309 307 308 307 308 308 308 310 306 309 305 305 307 305 305 302 303 302
304 305 305 309 312 315 315 312 312 312 320 313 311 309 309 318 316 316 311 308 307 306 306 307 307 307 309 308 307 308 307 308 307 306 307 307 306 305 304 304 304 306 306 304 304
304 305 306 309 308 316 313 312 307 312 314 312 311 311 312 310 314 314 312 309 306 307 307 306 306 307 307 307 306 306 306 305 303 305 308 306 306 305 303 305 305 303 305 307 304
304 305 307 310 310 315 310 309 311 316 310 311 310 310 313 310 311 314 313 313 310 307 307 307 307 306 307 307 306 307 306 307 307 308 309 304 304 307 305 303 303 304 303 301 300
303 304 308 310 309 312 309 311 314 310 309 308 309 309 311 309 310 316 314 313 312 306 306 307 309 306 306 307 306 305 306 308 309 309 307 305 307 307 304 305 302 302 303 301 299
302 304 310 311 312 311 310 313 310 309 308 310 309 310 309 310 308 311 315 315 313 307 307 306 307 307 306 306 307 306 306 305 307 298 306 305 304 305 305 304 303 303 305 304 301
302 309 311 310 312 309 310 313 307 307 308 309 310 309 310 310 309 311 311 313 313 309 306 305 308 307 307 307 307 306 306 309 306 308 309 306 306 305 306 306 304 305 304 304 303
302 311 311 309 310 310 312 311 307 306 308 309 308 309 308 310 309 310 310 308 311 307 305 305 307 308 307 307 307 306 306 306 306 307 309 306 304 302 307 306 304 304 303 303 302
304 311 312 311 309 306 311 308 307 307 308 307 307 306 307 309 308 309 308 307 309 305 308 308 308 308 308 307 306 306 307 307 310 308 305 307 306 304 302 302 304 303 303 303 303
302 302 312 311 309 308 311 309 308 308 308 307 307 306 306 308 309 308 307 307 307 307 309 309 309 309 309 308 308 308 306 305 304 305 306 307 307 302 304 306 305 303 301 302 302
299 307 306 312 308 309 311 311 308 308 308 307 306 306 307 307 307 308 307 307 307 307 311 310 309 310 310 309 308 309 307 305 306 306 306 306 307 306 305 306 308 306 304 302 302
296 302 299 312 305 309 311 311 309 309 307 307 307 307 307 307 307 307 308 307 307 310 309 309 310 307 306 307 308 308 308 307 308 309 309 309 305 305 303 303 304 305 304 304 303
299 300 298 307 308 309 311 311 309 308 307 309 307 307 307 306 307 307 307 307 307 308 307 305 303 304 302 306 306 308 308 307 307 309 308 306 305 304 303 304 304 304 304 304 304
291 292 299 306 308 311 311 311 309 308 309 308 307 306 306 306 306 306 306 306 306 307 306 306 303 305 300 303 305 307 308 308 308 308 308 307 307 303 303 302 302 303 303 304 303
Wind_Speed
26 27 28 23 31 29 25 24 30 37 32 24 23 21 18 14 13 13 8 11 15 10 10 10 6 7 4 3 3 4 4 2 6 7 4 6 4 3 2 7 2 3 6 9 32
21 27 24 25 27 30 27 26 33 34 33 30 23 19 15 12 9 11 14 15 21 18 17 15 5 5 3 2 2 4 4 8 5 4 6 8 6 9 5 3 1 3 4 28 33
17 22 25 30 26 33 29 29 31 34 32 32 28 22 19 13 3 9 25 18 23 21 17 13 13 5 4 4 1 2 4 4 4 5 6 9 5 5 10 4 6 9 14 22 27
17 21 24 26 25 35 32 31 29 31 34 33 32 24 21 15 10 4 16 22 25 19 14 11 4 5 5 5 2 2 4 2 5 1 8 9 7 6 6 7 9 12 26 23 20
14 19 20 27 26 37 34 34 29 27 26 31 34 28 19 2 8 4 14 26 23 20 20 6 5 5 6 6 6 4 2 4 5 2 4 9 4 5 4 3 8 14 19 19 20
13 17 19 25 27 35 34 33 31 29 30 28 26 32 12 6 8 5 15 27 26 23 12 11 8 2 5 2 3 0 1 4 4 4 1 5 3 6 6 5 9 15 14 13 19
14 13 22 23 25 20 33 32 32 31 30 29 29 25 9 6 9 4 17 28 23 21 7 10 8 5 7 5 4 6 4 3 0 3 3 1 2 7 5 8 12 13 12 9 14
14 16 15 24 27 21 32 32 31 31 35 32 32 15 4 14 8 7 16 20 19 19 9 14 8 5 4 4 4 7 4 5 2 5 2 4 9 4 6 12 11 10 9 9 10
15 16 17 19 27 22 32 30 31 33 36 34 23 5 6 8 5 6 17 15 17 8 5 12 5 4 3 7 3 3 4 4 1 3 3 3 7 4 7 6 9 10 11 12 10
15 16 15 22 21 27 34 31 35 34 29 20 5 3 4 7 8 10 11 20 6 7 5 4 4 4 3 4 11 6 4 2 5 5 3 4 8 4 4 8 11 9 8 8 9
16 14 14 18 19 30 34 35 12 5 8 7 16 3 9 11 11 8 11 11 5 5 6 3 5 7 7 6 7 6 5 4 2 1 3 8 8 8 3 4 7 9 8 9 14
14 14 16 20 21 30 43 14 19 10 7 5 9 3 5 12 5 4 14 6 5 5 5 4 7 7 8 6 5 5 6 6 1 0 3 1 9 7 5 7 9 10 9 11 6
17 18 16 21 24 32 32 29 29 30 6 3 6 2 3 2 6 7 9 4 6 6 5 7 6 7 8 6 6 3 6 5 3 2 2 3 7 4 6 5 5 7 8 8 15
18 17 17 21 14 32 25 32 31 26 4 4 4 7 4 6 4 3 7 4 3 10 7 5 2 10 5 7 7 5 5 6 6 5 4 1 5 5 6 9 6 11 10 13 11
18 18 20 27 9 24 28 43 37 7 14 12 6 11 6 12 12 4 1 2 8 6 6 7 8 7 5 7 6 8 6 7 4 3 3 2 1 7 2 6 8 14 16 15 15
18 19 22 28 39 25 47 45 13 5 5 8 7 10 13 5 8 14 3 4 4 5 3 6 1 8 12 4 9 8 7 6 5 3 4 7 7 5 6 8 6 8 15 18 11
18 20 23 33 21 40 43 13 6 10 12 8 12 17 22 8 8 23 16 14 7 7 6 2 1 3 3 6 4 3 7 1 1 2 6 1 4 7 5 8 9 8 8 10 8
17 20 20 40 41 53 29 9 8 11 15 4 11 19 13 8 5 21 24 18 14 3 5 6 5 8 3 6 8 6 8 5 7 4 4 1 7 6 10 12 6 7 6 6 6
15 19 19 40 35 49 18 13 13 25 13 16 12 22 4 8 8 12 20 28 23 18 9 6 5 1 1 3 12 7 7 6 7 2 3 5 6 9 6 10 9 10 5 7 6
7 11 25 39 36 38 17 19 5 13 17 21 14 18 19 24 9 20 20 20 19 26 12 8 5 3 2 2 0 8 9 3 3 4 4 5 6 5 6 14 7 6 9 6 4
2 4 20 37 41 15 21 10 3 15 23 18 9 14 15 22 16 23 28 6 29 20 2 7 5 3 5 7 8 3 5 3 5 5 5 1 6 9 15 12 10 9 8 9 8
2 6 31 47 11 10 17 8 7 20 13 4 7 5 23 24 9 20 16 9 28 12 10 3 6 4 6 1 3 2 8 8 7 5 1 3 6 2 7 6 6 7 9 7 6
2 1 23 32 6 14 12 4 5 23 24 8 6 4 15 18 8 13 12 13 21 17 16 9 0 4 4 4 2 7 4 6 6 3 7 4 6 2 6 5 3 6 5 6 7
1 4 4 12 4 19 15 13 6 15 11 4 7 9 16 12 3 14 9 10 17 16 11 10 3 7 13 25 8 6 8 6 7 3 4 11 3 6 6 6 1 2 4 7 7
1 2 0 12 9 18 18 18 13 11 5 7 3 19 16 14 12 8 6 5 10 11 6 8 7 4 2 2 9 4 9 14 17 24 13 27 14 13 9 8 6 3 2 4 6
2 2 2 7 22 21 21 18 20 10 12 21 14 22 15 11 20 6 7 3 8 3 8 2 3 3 3 3 5 6 9 12 17 27 22 8 9 4 7 3 5 8 7 8 8
2 2 1 9 17 21 21 25 28 21 1 19 16 8 8 8 12 9 7 9 13 13 7 5 6 4 3 2 6 3 21 22 22 21 19 15 12 8 8 8 8 10 9 9 10
Wind_Direction
239 238 240 260 230 234 235 220 217 200 195 190 195 187 196 194 186 181 202 208 200 173 200 170 154 129 104 83 85 129 73 218 196 161 212 147 143 157 33 120 93 134 157 165 160
246 230 238 239 233 229 230 217 206 199 197 196 196 190 179 196 201 238 206 196 187 184 184 172 158 94 50 52 39 99 132 212 196 209 192 170 165 158 124 130 73 89 66 140 153
255 235 230 235 251 226 225 217 206 203 195 195 191 187 199 169 222 234 211 189 181 187 193 175 145 98 75 14 31 145 190 220 247 209 188 163 169 163 125 232 204 175 150 151 156
248 239 226 231 247 222 219 212 206 201 201 199 200 203 189 147 191 224 209 188 183 181 179 159 121 120 140 167 210 249 260 241 310 294 149 166 129 154 174 211 173 166 159 156 167
246 248 240 233 253 214 214 207 203 198 197 188 183 169 144 121 255 296 200 179 176 180 172 142 135 137 153 156 142 169 275 305 331 297 174 132 182 184 206 12 127 135 160 168 175
263 252 259 236 242 208 211 205 200 197 193 188 169 156 112 178 298 296 186 176 175 178 164 157 172 172 103 129 135 134 353 296 4 31 102 132 162 138 230 123 130 151 172 179 180
265 253 246 232 237 222 210 205 197 192 183 171 168 156 157 177 235 255 181 177 177 182 149 183 160 134 125 129 194 136 247 300 33 2 48 54 5 223 167 148 156 174 179 182 197
253 251 236 232 222 235 208 201 195 190 179 169 165 178 195 209 226 191 171 160 180 185 173 185 183 109 144 139 84 146 145 177 247 131 3 90 245 270 165 149 175 183 181 190 203
248 258 236 225 217 223 205 192 184 178 172 165 167 185 203 180 205 174 176 159 163 147 139 164 138 145 97 129 103 45 170 179 195 185 138 150 258 234 161 178 181 192 197 203 210
244 257 251 234 222 221 198 178 157 137 136 136 137 109 271 186 163 164 171 159 137 127 83 87 66 118 56 161 196 161 135 190 175 211 146 179 259 285 206 178 203 206 206 204 207
242 262 255 239 231 218 176 141 129 144 189 168 177 256 136 138 134 144 163 115 89 94 146 156 136 189 175 177 159 156 152 175 253 139 150 201 239 243 206 229 231 225 215 218 222
248 260 252 240 230 214 160 167 169 149 146 113 185 304 172 138 104 136 153 118 129 130 114 93 205 188 174 167 145 168 164 178 336 277 143 125 264 254 197 221 214 214 223 231 235
245 250 249 245 228 213 177 185 163 151 104 213 145 137 225 107 117 168 154 118 123 129 162 160 203 154 154 158 149 201 168 170 169 145 8 100 290 248 230 244 214 231 228 229 223
244 251 250 241 237 218 179 181 164 166 112 188 143 202 147 143 92 52 176 133 146 173 134 166 164 161 164 191 138 190 206 161 134 135 212 183 268 260 235 236 213 238 228 233 232
250 253 241 226 226 204 174 167 169 95 187 154 158 149 164 161 133 239 358 58 155 157 137 202 150 143 165 185 149 211 153 160 136 133 132 224 213 257 148 258 239 238 233 231 226
253 257 250 218 223 171 159 163 181 143 190 171 146 140 152 160 159 158 27 342 144 120 93 183 180 163 188 139 163 138 89 53 53 87 258 195 183 235 184 204 236 239 231 231 221
265 262 252 205 210 178 162 159 146 196 151 171 166 158 168 160 131 155 172 220 182 126 167 91 205 299 148 107 93 168 126 81 219 221 233 233 186 252 239 231 218 247 264 244 213
273 265 264 207 208 160 158 162 174 170 177 156 147 157 171 135 125 171 170 189 214 125 126 150 216 167 188 168 153 176 174 155 184 186 221 216 229 239 221 254 230 242 265 302 221
287 269 223 201 213 160 154 184 187 168 157 147 120 157 122 171 127 165 186 191 193 185 165 148 216 345 241 148 154 194 206 165 102 49 51 226 290 298 258 264 256 234 225 253 230
302 255 199 196 176 157 166 194 143 157 125 138 157 179 171 179 148 180 180 199 194 204 171 199 162 174 173 132 1 191 156 160 18 132 254 281 283 239 241 229 230 239 225 229 211
293 238 200 185 154 173 181 183 142 164 143 156 144 175 182 173 183 183 189 194 197 187 198 145 116 206 129 206 162 148 165 80 125 157 174 222 259 218 211 234 225 223 209 201 199
224 213 174 162 161 190 183 150 140 167 150 120 108 93 181 178 161 184 186 195 185 162 164 178 115 143 193 167 171 190 176 173 195 200 143 157 270 310 259 278 245 225 198 195 179
238 224 185 181 163 181 180 175 145 165 171 145 133 141 156 173 179 190 183 191 174 176 169 172 249 93 27 347 239 206 189 143 97 76 205 167 258 349 314 312 248 213 196 190 175
153 173 258 168 195 175 173 187 128 174 167 102 115 107 145 178 212 188 164 172 182 184 140 113 118 166 191 211 109 167 167 162 142 176 167 239 226 285 268 266 238 148 163 175 182
222 226 177 175 177 183 179 175 144 155 179 135 148 167 157 185 178 182 152 128 175 169 160 144 163 148 240 190 176 172 184 179 187 221 191 244 213 218 229 222 218 229 185 173 196
187 237 123 190 171 174 187 185 174 165 156 192 176 169 173 162 186 131 114 110 161 44 166 7 107 118 17 20 188 184 180 182 210 225 228 209 266 229 251 116 184 207 195 208 218
169 293 0 185 168 174 188 181 192 164 61 185 145 136 180 173 139 150 161 154 156 166 177 116 120 93 253 330 71 356 206 194 216 218 223 226 232 193 217 210 213 228 209 214 219